Morrisville, VT

3:07 AM EST on December 16, 2019 (GMT -0500)
Morrisville Stowe State

Weather History for KMVL - August, 2019

Change the Weather History Date:

Thursday, August 29, 2019

  Actual Average Record
Temperature  
Mean Temperature 65 °F 64 °F  
Max Temperature 77 °F 76 °F 90 °F (2018)
Min Temperature 53 °F 51 °F 41 °F (2017)
Degree Days  
Heating Degree Days 0 3  
Month to date heating degree days 46 59  
Since 1 June heating degree days 199 212  
Since 1 July heating degree days 56 89  
Cooling Degree Days 0 2  
Month to date cooling degree days 61 74  
Year to date cooling degree days 243 242  
Since 1 June cooling degree days 242 234  
Growing Degree Days 15 (Base 50)    
Moisture  
Dew Point 59 °F    
Average Humidity 86    
Maximum Humidity 100    
Minimum Humidity 47    
Precipitation  
Precipitation 0.21 in 0.11 in 1.92 in (1949)
Month to date precipitation 3.79 3.82  
Year to date precipitation 27.23 23.55  
Sea Level Pressure  
Sea Level Pressure 29.87 in    
Wind  
Wind Speed 1 mph ()    
Max Wind Speed 14 mph    
Max Gust Speed 19 mph    
Visibility 6.6 miles    
Events Fog , Rain    
T = Trace of Precipitation, MM = Missing Value Source: Averaged Metar Reports

Daily Weather History Graph

Daily Weather History Graph

Search for Another Location

Airport or City:

Astronomy

Aug. 29, 2019 Rise Set
Actual Time 6:09 AM EDT 7:32 PM EDT
Civil Twilight 5:38 AM EDT 8:02 PM EDT
Nautical Twilight 5:02 AM EDT 8:39 PM EDT
Astronomical Twilight 4:23 AM EDT 9:18 PM EDT
Moon 4:45 AM EDT (8/29) 7:30 PM EDT (8/29)
Length of Visible Light 14h 24m
Length of Day
13h 23m
Waning Crescent, 1% of the Moon is Illuminated
Aug 29
Waning Crescent
Aug 30
New
Sep 5
First Quarter
Sep 14
Full
Sep 21
Last Quarter

Hourly Weather History & Observations

Time (EDT) Temp. Dew Point Humidity Pressure Visibility Wind Dir Wind Speed Gust Speed Precip Events Conditions
12:54 AM 63.0 °F 62.1 °F 97% 29.86 in 10.0 mi Calm Calm - 0.12 in Rain Light Rain
1:54 AM 63.0 °F 61.0 °F 93% 29.84 in 10.0 mi Calm Calm - 0.08 in Rain Light Rain
2:54 AM 62.1 °F 61.0 °F 96% 29.83 in 5.0 mi Calm Calm - 0.01 in   Scattered Clouds
3:03 AM 61.0 °F 60.1 °F 97% 29.84 in 2.5 mi Calm Calm - N/A   Mostly Cloudy
3:05 AM 61.0 °F 60.1 °F 97% 29.84 in 1.8 mi Calm Calm - N/A   Mostly Cloudy
3:10 AM 61.0 °F 60.1 °F 97% 29.84 in 1.0 mi South 3.5 mph - N/A   Mist
3:18 AM 61.0 °F 60.1 °F 97% 29.84 in 0.5 mi Calm Calm - N/A Fog Fog
3:54 AM 60.1 °F 59.0 °F 96% 29.84 in 0.5 mi Calm Calm - N/A Fog Fog
4:54 AM 59.0 °F 59.0 °F 100% 29.85 in 0.2 mi South 3.5 mph - N/A Fog Fog
5:54 AM 59.0 °F 59.0 °F 100% 29.86 in 1.5 mi Calm Calm - N/A   Overcast
6:03 AM 59.0 °F 59.0 °F 100% 29.86 in 3.0 mi Variable 3.5 mph - N/A   Overcast
6:07 AM 60.1 °F 59.0 °F 96% 29.86 in 1.8 mi Calm Calm - N/A   Overcast
6:12 AM 60.1 °F 59.0 °F 96% 29.86 in 0.8 mi Calm Calm - N/A   Mist
6:45 AM 59.0 °F 59.0 °F 100% 29.87 in 1.2 mi Calm Calm - N/A   Overcast
6:54 AM 59.0 °F 59.0 °F 100% 29.87 in 2.5 mi Calm Calm - N/A   Overcast
7:20 AM 60.1 °F 59.0 °F 96% 29.87 in 1.2 mi Calm Calm - N/A   Overcast
7:40 AM 60.1 °F 59.0 °F 96% 29.87 in 3.0 mi Calm Calm - N/A   Overcast
7:54 AM 60.1 °F 59.0 °F 96% 29.88 in 10.0 mi South 3.5 mph - N/A   Overcast
8:47 AM 62.1 °F 60.1 °F 93% 29.87 in 10.0 mi NNE 4.6 mph - N/A   Overcast
8:54 AM 63.0 °F 61.0 °F 93% 29.87 in 10.0 mi North 3.5 mph - N/A   Overcast
9:35 AM 64.0 °F 60.1 °F 87% 29.87 in 10.0 mi Calm Calm - N/A   Overcast
9:54 AM 66.0 °F 61.0 °F 84% 29.87 in 10.0 mi NNE 4.6 mph - N/A   Scattered Clouds
10:54 AM 70.0 °F 60.1 °F 71% 29.88 in 10.0 mi Variable 3.5 mph - N/A   Clear
11:54 AM 73.9 °F 62.1 °F 66% 29.88 in 10.0 mi Variable 3.5 mph - N/A   Partly Cloudy
12:54 PM 75.0 °F 55.0 °F 50% 29.86 in 10.0 mi NNW 10.4 mph - N/A   Partly Cloudy
1:54 PM 77.0 °F 55.9 °F 48% 29.85 in 10.0 mi Variable 6.9 mph - N/A   Partly Cloudy
2:54 PM 73.9 °F 57.0 °F 55% 29.86 in 10.0 mi Variable 4.6 mph - N/A   Overcast
3:54 PM 73.9 °F 59.0 °F 59% 29.86 in 10.0 mi North 5.8 mph - N/A   Overcast
4:54 PM 73.9 °F 57.0 °F 55% 29.85 in 10.0 mi Calm Calm - N/A   Mostly Cloudy
5:54 PM 72.0 °F 55.9 °F 57% 29.86 in 10.0 mi NW 6.9 mph - N/A   Overcast
6:54 PM 69.1 °F 57.9 °F 68% 29.88 in 10.0 mi Calm Calm - N/A   Mostly Cloudy
7:54 PM 66.9 °F 55.0 °F 66% 29.90 in 10.0 mi Variable 3.5 mph - N/A   Clear
8:54 PM 59.0 °F 57.0 °F 93% 29.93 in 10.0 mi Calm Calm - N/A   Clear
9:54 PM 57.9 °F 55.9 °F 93% 29.93 in 10.0 mi South 4.6 mph - N/A   Clear
10:54 PM 55.9 °F 55.0 °F 97% 29.94 in 10.0 mi Calm Calm - N/A   Clear
11:54 PM 55.0 °F 54.0 °F 96% 29.93 in 10.0 mi Calm Calm - N/A   Clear